User: anonymous   Login
Location: Unspecified
(0.0000°N, 0.0000°E)
Time: 13:46:25
(UTC+00:00)
Language:

OV3-3 - Orbit

View from above orbital plane
View from above orbital plane
View from above satellite
View from above satellite

Ground track
Ground track

The orbit data is extracted from the following two-line orbital elements,

1 02389U 66070A   17294.20253304  .00002897  00000-0  16302-3 0  9994
2 02389  81.3893  65.4223 1248186 332.3703  21.6062 12.90635172186074
Epoch (UTC): 21 October 2017 04:51:38
Eccentricity: 0.1248186
inclination: 81.3893°
perigee height: 341 km
apogee height: 2257 km
right ascension of ascending node: 65.4223°
argument of perigee: 332.3703°
revolutions per day: 12.90635172
mean anomaly at epoch: 21.6062°
orbit number at epoch: 18607

The dashed part of the orbit path shows where the satellite is in the earth's shadow,  

DLR